Weather History for Crossville, TN

Change the Weather History Date:

Saturday, September 21, 2013

  Actual Average Record
Temperature  
Mean Temperature 63 °F 65 °F  
Max Temperature 71 °F 76 °F 92 °F (1955)
Min Temperature 55 °F 55 °F 33 °F (1956)
Degree Days  
Heating Degree Days 2    
Month to date heating degree days 8  
Since 1 July heating degree days 8  
Cooling Degree Days 0    
Month to date cooling degree days 133  
Year to date cooling degree days 890  
Growing Degree Days 14 (Base 50)    
Moisture  
Dew Point 62 °F    
Average Humidity 83    
Maximum Humidity 93    
Minimum Humidity 73    
Precipitation  
Precipitation 1.68 in 0.14 in 1.68 in (2013)
Month to date precipitation 2.45 2.69  
Year to date precipitation 49.06 40.81  
Sea Level Pressure  
Sea Level Pressure 29.82 in    
Wind  
Wind Speed 5 mph (NNW)    
Max Wind Speed 13 mph    
Max Gust Speed 20 mph    
Visibility 6 miles    
Events Fog , Rain    
T = Trace of Precipitation, MM = Missing Value Source: NWS Daily Summary

Daily Weather History Graph

Daily Weather History Graph

Search for Another Location

Airport:

Trip Planner

Search our weather history database for the weather conditions in past years. The results will help you decide how hot, cold, wet, or windy it might be!

Date:

Astronomy

Sep. 21, 2013 Rise Set
Actual Time 6:27 AM CDT 6:38 PM CDT
Civil Twilight 6:02 AM CDT 7:03 PM CDT
Nautical Twilight 5:32 AM CDT 7:33 PM CDT
Astronomical Twilight 5:01 AM CDT 8:03 PM CDT
Moon 7:55 PM CDT (9/21) 8:39 AM CDT (9/21)
Length of Visible Light 13h 01m
Length of Day
12h 10m
Waning Gibbous, 94% of the Moon is Illuminated
Sep 21
Waning Gibbous
Sep 26
Last Quarter
Oct 4
New
Oct 11
First Quarter
Oct 18
Full

Hourly Weather History & Observations

Time (CDT) Temp. Dew Point Humidity Pressure Visibility Wind Dir Wind Speed Gust Speed Precip Events Conditions
12:53 AM 71.1 °F 64.9 °F 81% 29.84 in 9.0 mi South 4.6 mph - 0.01 in Rain Light Rain
1:53 AM 70.0 °F 64.9 °F 84% 29.81 in 8.0 mi South 5.8 mph - 0.02 in Rain Light Rain
2:53 AM 70.0 °F 64.9 °F 84% 29.78 in 7.0 mi South 6.9 mph - 0.01 in Rain Light Rain
3:53 AM 69.1 °F 64.9 °F 87% 29.75 in 5.0 mi South 6.9 mph - 0.04 in Rain Light Rain
4:20 AM 68.0 °F 64.4 °F 88% 29.81 in 3.0 mi South 6.9 mph - 0.07 in Rain Rain
4:38 AM 68.0 °F 64.4 °F 88% 29.81 in 2.0 mi Variable 6.9 mph - 0.17 in Rain Heavy Rain
4:46 AM 68.0 °F 64.4 °F 88% 29.81 in 1.8 mi South 8.1 mph - 0.24 in Rain Heavy Rain
4:53 AM 68.0 °F 64.9 °F 90% 29.75 in 1.5 mi South 9.2 mph - 0.30 in Rain Heavy Rain
5:00 AM 68.0 °F 64.4 °F 88% 29.80 in 3.0 mi South 6.9 mph - 0.01 in Rain Light Rain
5:11 AM 68.0 °F 64.4 °F 88% 29.80 in 5.0 mi South 8.1 mph - 0.02 in Rain Light Rain
5:15 AM 68.0 °F 64.4 °F 88% 29.80 in 5.0 mi South 6.9 mph - 0.02 in Rain Light Rain
5:23 AM 68.0 °F 64.4 °F 88% 29.80 in 6.0 mi South 8.1 mph - 0.03 in Rain Light Rain
5:53 AM 68.0 °F 64.9 °F 90% 29.74 in 3.0 mi South 4.6 mph - 0.08 in Rain Rain
6:24 AM 69.8 °F 64.4 °F 83% 29.83 in 2.0 mi West 6.9 mph - 0.11 in Rain Heavy Rain
6:33 AM 69.8 °F 66.2 °F 88% 29.83 in 1.8 mi NW 9.2 mph - 0.18 in Rain Heavy Rain
6:53 AM 64.9 °F 62.1 °F 90% 29.78 in 1.2 mi NNW 10.4 mph - 0.41 in Rain Heavy Rain
7:00 AM 64.4 °F 62.6 °F 94% 29.84 in 1.0 mi NW 5.8 mph 19.6 mph 0.17 in Rain Heavy Rain
7:11 AM 64.4 °F 62.6 °F 94% 29.85 in 1.0 mi Calm Calm - 0.27 in Rain Heavy Rain
7:18 AM 64.4 °F 62.6 °F 94% 29.85 in 0.5 mi Calm Calm - 0.35 in Fog , Rain Heavy Rain
7:26 AM 64.4 °F 60.8 °F 88% 29.85 in 1.0 mi North 4.6 mph - 0.40 in Rain Heavy Rain
7:40 AM 64.4 °F 62.6 °F 94% 29.86 in 1.0 mi Variable 3.5 mph - 0.48 in Rain Rain
7:53 AM 64.0 °F 62.1 °F 93% 29.82 in 0.8 mi NNW 3.5 mph - 0.60 in Rain Heavy Rain
8:02 AM 64.4 °F 62.6 °F 94% 29.86 in 1.0 mi North 4.6 mph - 0.06 in Rain Heavy Rain
8:15 AM 64.4 °F 62.6 °F 94% 29.86 in 3.0 mi Calm Calm - 0.09 in Rain Light Rain
8:35 AM 64.4 °F 62.6 °F 94% 29.85 in 7.0 mi ENE 4.6 mph - 0.11 in Rain Light Rain
8:53 AM 64.0 °F 62.1 °F 93% 29.80 in 4.0 mi ENE 4.6 mph - 0.13 in Rain Rain
9:53 AM 64.0 °F 61.0 °F 90% 29.80 in 9.0 mi North 5.8 mph - 0.05 in Rain Light Rain
10:09 AM 64.4 °F 62.6 °F 94% 29.86 in 5.0 mi NW 3.5 mph - 0.02 in Rain Light Rain
10:18 AM 64.4 °F 60.8 °F 88% 29.85 in 10.0 mi North 5.8 mph - 0.02 in Rain Light Rain
10:53 AM 64.9 °F 61.0 °F 87% 29.81 in 10.0 mi Calm Calm - 0.02 in   Overcast
11:09 AM 66.2 °F 60.8 °F 83% 29.86 in 10.0 mi Calm Calm - N/A   Overcast
11:23 AM 66.2 °F 62.6 °F 88% 29.86 in 10.0 mi Calm Calm - N/A   Overcast
11:53 AM 66.9 °F 61.0 °F 81% 29.80 in 10.0 mi NNE 4.6 mph - N/A   Mostly Cloudy
12:24 PM 66.2 °F 62.6 °F 88% 29.86 in 2.5 mi NNW 5.8 mph - 0.00 in Rain Light Rain
12:32 PM 66.2 °F 62.6 °F 88% 29.86 in 3.0 mi North 3.5 mph - 0.00 in Rain Light Rain
12:53 PM 66.9 °F 62.1 °F 84% 29.80 in 10.0 mi Variable 3.5 mph - 0.00 in   Overcast
1:15 PM 66.2 °F 62.6 °F 88% 29.85 in 2.5 mi Variable 3.5 mph - N/A   Overcast
1:30 PM 66.2 °F 62.6 °F 88% 29.84 in 8.0 mi North 4.6 mph - 0.01 in   Overcast
1:48 PM 66.2 °F 62.6 °F 88% 29.84 in 1.8 mi NW 4.6 mph - 0.01 in Rain Light Rain
1:53 PM 66.9 °F 63.0 °F 87% 29.78 in 1.2 mi NNW 3.5 mph - 0.02 in Rain Light Rain
2:02 PM 66.2 °F 62.6 °F 88% 29.84 in 2.0 mi NW 9.2 mph - 0.01 in Rain Light Rain
2:09 PM 66.2 °F 62.6 °F 88% 29.84 in 9.0 mi NW 9.2 mph 16.1 mph 0.01 in   Overcast
2:34 PM 68.0 °F 62.6 °F 83% 29.83 in 10.0 mi NW 6.9 mph - 0.01 in   Mostly Cloudy
2:44 PM 68.0 °F 62.6 °F 83% 29.84 in 10.0 mi NW 8.1 mph - 0.01 in   Overcast
2:53 PM 66.0 °F 62.1 °F 87% 29.78 in 6.0 mi North 6.9 mph - 0.01 in Rain Light Rain
3:00 PM 66.2 °F 62.6 °F 88% 29.84 in 7.0 mi North 9.2 mph - 0.00 in Rain Light Rain
3:53 PM 63.0 °F 59.0 °F 87% 29.79 in 7.0 mi NNW 10.4 mph - 0.00 in   Overcast
4:26 PM 66.2 °F 59.0 °F 78% 29.84 in 10.0 mi Variable 3.5 mph - N/A   Overcast
4:53 PM 66.0 °F 57.0 °F 73% 29.79 in 10.0 mi NNW 5.8 mph - N/A   Mostly Cloudy
5:01 PM 66.2 °F 57.2 °F 73% 29.84 in 10.0 mi NNW 5.8 mph - N/A   Scattered Clouds
5:53 PM 64.9 °F 55.9 °F 73% 29.80 in 10.0 mi NNW 8.1 mph - N/A   Scattered Clouds
6:53 PM 62.1 °F 55.0 °F 78% 29.82 in 10.0 mi Calm Calm - N/A   Scattered Clouds
7:53 PM 61.0 °F 55.0 °F 81% 29.84 in 10.0 mi NNW 4.6 mph - N/A   Partly Cloudy
8:53 PM 59.0 °F 54.0 °F 83% 29.85 in 10.0 mi NNW 4.6 mph - N/A   Partly Cloudy
9:53 PM 57.9 °F 54.0 °F 87% 29.86 in 10.0 mi North 4.6 mph - N/A   Clear
10:53 PM 57.0 °F 52.0 °F 83% 29.86 in 10.0 mi North 5.8 mph - N/A   Clear
11:53 PM 55.9 °F 51.1 °F 84% 29.85 in 10.0 mi North 3.5 mph - N/A   Clear